{"data":{"norad_id":65810,"intl_designator":"2025-218V","name":"STARLINK-35268","alt_names":[],"object_type":"PAYLOAD","status":"ACTIVE","operator":null,"country":"US","launch_date":"2025-09-26","launch_site_code":"AFWTR","launch_vehicle":null,"mission":null,"orbit_class":"UNKNOWN","rcs_meters":null,"size_class":null,"mass_kg":null,"dimensions":null,"purposes":["comms"],"wikipedia_slug":null,"has_3d_model":false,"image_url":null,"decayed_at":null,"tle_current":{"epoch":"2026-09-20T13:53:43.895328Z","epoch_age_seconds":99340,"freshness":"FRESH","line1":"1 65810U 25218V   26263.57898027  .00010094  00000+0  31455-3 0  9997","line2":"2 65810  97.2844 120.9238 0001815  91.3657 268.7793 15.33445086 54344","mean_motion":15.33445086,"eccentricity":0.0001815,"inclination_deg":97.2844,"raan_deg":120.9238,"arg_perigee_deg":91.3657,"mean_anomaly_deg":268.7793,"bstar":0.00031455,"rev_number":5434,"period_min":93.906199390305,"perigee_km":464.30079069742,"apogee_km":466.78504650788,"semimajor_km":6843.6799186026,"source":"CELESTRAK","updated_at":"2026-09-21T09:00:35.717591Z"}}}